Flag for Canada Weather past 2 weeks in Richmond, British Columbia, Canada

Now
57 °F

Clear.


Feels Like: 55 °F
Forecast: 57 / 68 °F
Wind: 12 mph from East

Location: Vancouver International Air-Port

Current Time: May 30, 2015 at 1:43:18 AM

Latest Report: May 30, 2015 at 1:00 AM


Visibility: 15 mi

Pressure: 29.88 "Hg

Humidity: 77%

Dew point: 50 °F

Location of RichmondLocation

Historic Weather in Richmond — Graph

°F

Richmond temperature yesterday

Maximum temperature yesterday: 72 °F (at 6:00 PM)
Minimum temperature yesterday: 59 °F (at 2:00 AM)
Average temperature yesterday: 65 °F

Past Weeks' High & Low Weather Summary

 TemperatureHumidityPressure
High72 °F (May 28, 5:00 PM)100% (May 18, 5:00 AM)30.16 "Hg (May 18, 5:00 AM)
Low52 °F (May 20, 4:00 AM)53% (May 29, 7:00 PM)29.78 "Hg (May 21, 5:00 PM)
Average61 °F78%29.99 "Hg
* Reported Midnight between May 14 and May 15 — Midnight between May 29 and May 30, Richmond, Weather by CustomWeather, © 2015

Note: Actual official high and low records may vary slightly from our data, if they occured in-between our weather recording intervals... More about our weather records

Advertising

Richmond weather history for previous 24 hours

 ConditionsComfort  
Time TempWeatherWind HumidityBarometerVisibility
12:00 AM
Sat, May 30
57 °FPassing clouds.10 mph77%29.87 "Hg15 mi
11:00 PM
Fri, May 29
61 °FPassing clouds.6 mph68%29.86 "Hg20 mi
10:00 PM63 °FPassing clouds.10 mph68%29.85 "Hg30 mi
9:00 PM68 °FScattered clouds.8 mph56%29.84 "Hg30 mi
8:00 PM68 °FPassing clouds.5 mph69%29.84 "Hg30 mi
7:00 PM72 °FPassing clouds.5 mph53%29.85 "Hg30 mi
6:00 PM72 °FPassing clouds.5 mph57%29.86 "Hg30 mi
5:00 PM70 °FSunny.6 mph64%29.88 "Hg30 mi
4:00 PM70 °FPassing clouds.6 mph64%29.90 "Hg30 mi
3:00 PM68 °FPassing clouds.8 mph69%29.91 "Hg30 mi
2:00 PM68 °FPassing clouds.7 mph73%29.93 "Hg30 mi
1:00 PM66 °FPassing clouds.9 mph73%29.94 "Hg30 mi
12:00 PM68 °FScattered clouds.7 mph69%29.96 "Hg30 mi
11:00 AM66 °FScattered clouds.9 mph73%29.96 "Hg30 mi
10:00 AM68 °FBroken clouds.9 mph73%29.97 "Hg30 mi
9:00 AM66 °FPartly sunny.8 mph73%29.97 "Hg30 mi
8:00 AM64 °FPartly sunny.7 mph78%29.98 "Hg30 mi
7:00 AM61 °FMore clouds than sun.2 mph88%29.97 "Hg30 mi
6:00 AM61 °FOvercast.6 mph88%29.97 "Hg20 mi
5:00 AM59 °FPassing clouds.5 mph82%29.97 "Hg20 mi
4:00 AM59 °FPassing clouds.2 mph94%29.97 "Hg20 mi
3:00 AM61 °FPassing clouds.2 mph94%29.97 "Hg20 mi
2:00 AM59 °FPassing clouds.3 mph88%29.98 "Hg20 mi
1:00 AM63 °FPassing clouds.2 mph83%29.98 "Hg20 mi
Weather by CustomWeather, © 2015

See weather overviewHow to use our weather pages